Flag for U.S.A. Weather past 2 weeks in Kailua-Kona, Hawaii, U.S.A.

Now
81 °F

Sunny.


Feels Like: 84 °F
Forecast: 67 / 76 °F
Wind: 7 mph from West

Location: Keahole Airport

Current Time: Mar 27, 2015 at 11:45:24 AM

Latest Report: Mar 27, 2015 at 10:53 AM


Visibility: 10 mi

Pressure: 30.14 "Hg

Humidity: 65%

Dew point: 68 °F

Location of Kailua-KonaLocation

Historic Weather in Kailua-Kona — Graph

°F

Kailua-Kona temperature yesterday

Maximum temperature yesterday: 83 °F (at 12:53 PM)
Minimum temperature yesterday: 73 °F (at 3:53 AM)
Average temperature yesterday: 78 °F

Past Weeks' High & Low Weather Summary

 TemperatureHumidityPressure
High85 °F (Mar 25, 3:53 PM)87% (Mar 13, 2:53 AM)30.14 "Hg (Mar 13, 2:53 AM)
Low64 °F (Mar 13, 3:53 AM)35% (Mar 15, 9:53 AM)29.88 "Hg (Mar 12, 3:53 PM)
Average76 °F61%30.04 "Hg
* Reported Mar 12 9:53 AM — Mar 27 9:53 AM, Kailua-Kona, Weather by CustomWeather, © 2015

Note: Actual official high and low records may vary slightly from our data, if they occured in-between our weather recording intervals... More about our weather records

Advertising

Kailua-Kona weather history for previous 24 hours

 ConditionsComfort  
Time TempWeatherWind HumidityBarometerVisibility
9:53 AM
Fri, Mar 27
79 °FScattered clouds.No wind67%30.14 "Hg10 mi
8:53 AM80 °FPartly sunny.5 mph64%30.14 "Hg10 mi
7:53 AM78 °FPassing clouds.3 mph64%30.13 "Hg10 mi
7:12 AM75 °FBroken clouds.6 mph69%30.11 "Hg10 mi
6:53 AM75 °FPartly sunny.5 mph69%30.10 "Hg10 mi
6:08 AM73 °FPassing clouds.3 mph74%30.09 "Hg10 mi
5:53 AM73 °FPassing clouds.5 mph76%30.08 "Hg10 mi
4:53 AM73 °FClear.3 mph69%30.06 "Hg10 mi
3:53 AM73 °FClear.6 mph71%30.06 "Hg10 mi
2:53 AM74 °FClear.6 mph74%30.06 "Hg10 mi
2:35 AM75 °FPassing clouds.5 mph69%30.06 "Hg10 mi
2:12 AM75 °FPassing clouds.No wind69%30.07 "Hg10 mi
1:53 AM74 °FClear.5 mph74%30.08 "Hg9 mi
12:53 AM76 °FPassing clouds.No wind69%30.10 "Hg10 mi
11:53 PM
Thu, Mar 26
76 °FPassing clouds.5 mph69%30.11 "Hg10 mi
10:53 PM76 °FPassing clouds.3 mph74%30.11 "Hg9 mi
9:53 PM78 °FClear.8 mph71%30.11 "Hg10 mi
8:53 PM79 °FOvercast.6 mph72%30.10 "Hg9 mi
7:53 PM78 °FPassing clouds.6 mph71%30.09 "Hg10 mi
6:53 PM79 °FClear.9 mph69%30.06 "Hg9 mi
5:53 PM80 °FPartly sunny.8 mph67%30.04 "Hg10 mi
4:53 PM81 °FMostly cloudy.9 mph62%30.02 "Hg10 mi
3:53 PM82 °FSunny.12 mph60%30.01 "Hg10 mi
2:53 PM82 °FBroken clouds.15 mph63%30.01 "Hg10 mi
1:53 PM83 °FPartly sunny.14 mph61%30.02 "Hg10 mi
12:53 PM83 °FPartly sunny.12 mph61%30.05 "Hg10 mi
11:53 AM81 °FOvercast.10 mph62%30.07 "Hg10 mi
Weather by CustomWeather, © 2015

See weather overviewHow to use our weather pages